SOLRAD 3/INJUN 1

Satellite information

Favourite Embed

Satellite Type and Status

PAYLOADIN ORBIT

Key statistics

Satellite SOLRAD 3/INJUN 1 at a glance.

Uptime

23379

Days in orbit

Revolutions

≈ 13.9

Per day

Orbit

LEO

Low Earth Orbit

Inclination

66.8

Latest

Satellite identification and parameters

Extended collection of information and parameters for SOLRAD 3/INJUN 1.

Object identification

Identified? True

Debris? False

Object name: SOLRAD 3/INJUN 1

International designator: 1961-015B

Object number (NORAD): 117

Object ID (CCSDS): 117

Country: UNITED STATES OF AMERICA (US)

Current information (Y/N): Y

RCS size: MEDIUM

Orbital parameters

Period: 103.587 minutes

Inclination: 66.8115 deg

SMA: 7306.283 km

Apoapsis: 985.431 km

Periapsis: 870.865 km

RAAN: 139.1477 deg

Eccentricy: 0.0078402

Argument of periapsis: 188.0656 deg

Mean anomaly: 171.9168 deg

Mean motion: 13.90138352 rev/day

Mean motion (dot): -0.00000025 rev/day2

B* drag term: 0.000040705 1/REarth

Two-line elements (TLE)

Creation date: July 2, 2025, 2:08 a.m.

Reference frame: TEME

Reference center: EARTH

Epoch: July 1, 2025, 8:46 p.m. UTC

TLE line 0: 0 SOLRAD 3/INJUN 1

TLE line 1: 1 00117U 61015B 25182.86537824 -.00000025 00000-0 40705-4 0 9991

TLE line 2: 2 00117 66.8115 139.1477 0078402 188.0656 171.9168 13.90138352245363

Live tracking on map

Real-time ground track for satellite SOLRAD 3/INJUN 1.

In-orbit conjunctions

There are no conjunctions computed for SOLRAD 3/INJUN 1, at the moment. Check back to stay up to date, as we update our databases every day.

Go to all conjunctions

Associated space launch

SOLRAD 3/INJUN 1 was lifted into orbit during the mission ‘Thor DM-21 Ablestar | Transit 4A & Injun-1 & Solrad 3’, on board a Thor DM-21 Ablestar space rocket.

The launch took place on June 29, 1961, 4:23 a.m. from Space Launch Complex 17B.

For more information about the launch, click the button.

Launch to space Thor DM-21 Ablestar | Transit 4A & Injun-1 & Solrad 3
Thor DM-21 Ablestar | Transit 4A & Injun-1 & Solrad 3

Agency: N/A

Status: Launch Successful

Launch date: June 29, 1961, 4:23 a.m. UTC

Rocket: Thor DM-21 Ablestar

Launch pad: Space Launch Complex 17B

Location: Cape Canaveral SFS, FL, USA

...

Latest news about this satellite

There are no fresh news available about this satellite. Check back as we update our databases every day.


Newsletter sign-up

Weekly statistics, charts and insights to help you stay on top of the space industry.